Year,Month,Day,Hour,Minute,Value (Times are PST for temperature in C)
2016,05,04,00,00,14.80
2016,05,04,00,01,14.80
2016,05,04,00,02,14.80
2016,05,04,00,03,14.80
2016,05,04,00,04,14.80
2016,05,04,00,05,14.80
2016,05,04,00,06,14.80
2016,05,04,00,07,14.70
2016,05,04,00,08,14.70
2016,05,04,00,09,14.70
2016,05,04,00,10,14.70
2016,05,04,00,11,14.70
2016,05,04,00,12,14.70
2016,05,04,00,13,14.70
2016,05,04,00,14,14.70
2016,05,04,00,15,14.60
2016,05,04,00,16,14.60
2016,05,04,00,17,14.60
2016,05,04,00,18,14.60
2016,05,04,00,19,14.60
2016,05,04,00,20,14.60
2016,05,04,00,21,14.60
2016,05,04,00,22,14.60
2016,05,04,00,23,14.60
2016,05,04,00,24,14.60
2016,05,04,00,25,14.60
2016,05,04,00,26,14.60
2016,05,04,00,27,14.60
2016,05,04,00,28,14.60
2016,05,04,00,29,14.50
2016,05,04,00,30,14.50
2016,05,04,00,31,14.50
2016,05,04,00,32,14.50
2016,05,04,00,33,14.50
2016,05,04,00,34,14.50
2016,05,04,00,35,14.40
2016,05,04,00,36,14.40
2016,05,04,00,37,14.40
2016,05,04,00,38,14.40
2016,05,04,00,39,14.40
2016,05,04,00,40,14.40
2016,05,04,00,41,14.40
2016,05,04,00,42,14.40
2016,05,04,00,43,14.40
2016,05,04,00,44,14.40
2016,05,04,00,45,14.40
2016,05,04,00,46,14.40
2016,05,04,00,47,14.30
2016,05,04,00,48,14.30
2016,05,04,00,49,14.30
2016,05,04,00,50,14.30
2016,05,04,00,51,14.30
2016,05,04,00,52,14.30
2016,05,04,00,53,14.30
2016,05,04,00,54,14.30
2016,05,04,00,55,14.30
2016,05,04,00,56,14.20
2016,05,04,00,57,14.20
2016,05,04,00,58,14.20
2016,05,04,00,59,14.20
2016,05,04,01,00,14.20
2016,05,04,01,01,14.20
2016,05,04,01,02,14.20
2016,05,04,01,03,14.10
2016,05,04,01,04,14.10
2016,05,04,01,05,14.10
2016,05,04,01,06,14.00
2016,05,04,01,07,14.00
2016,05,04,01,08,14.00
2016,05,04,01,09,14.00
2016,05,04,01,10,13.90
2016,05,04,01,11,13.80
2016,05,04,01,12,13.70
2016,05,04,01,13,13.70
2016,05,04,01,14,13.70
2016,05,04,01,15,13.60
2016,05,04,01,16,13.60
2016,05,04,01,17,13.50
2016,05,04,01,18,13.50
2016,05,04,01,19,13.40
2016,05,04,01,20,13.30
2016,05,04,01,21,13.30
2016,05,04,01,22,13.20
2016,05,04,01,23,13.20
2016,05,04,01,24,13.10
2016,05,04,01,25,13.10
2016,05,04,01,26,13.10
2016,05,04,01,27,13.00
2016,05,04,01,28,13.00
2016,05,04,01,29,13.00
2016,05,04,01,30,12.90
2016,05,04,01,31,12.90
2016,05,04,01,32,12.90
2016,05,04,01,33,12.90
2016,05,04,01,34,12.90
2016,05,04,01,35,12.90
2016,05,04,01,36,12.90
2016,05,04,01,37,12.90
2016,05,04,01,38,12.90
2016,05,04,01,39,12.90
2016,05,04,01,40,12.80
2016,05,04,01,41,12.80
2016,05,04,01,42,12.80
2016,05,04,01,43,12.80
2016,05,04,01,44,12.80
2016,05,04,01,45,12.80
2016,05,04,01,46,12.80
2016,05,04,01,47,12.80
2016,05,04,01,48,12.80
2016,05,04,01,49,12.80
2016,05,04,01,50,12.80
2016,05,04,01,51,12.80
2016,05,04,01,52,12.80
2016,05,04,01,53,12.80
2016,05,04,01,54,12.80
2016,05,04,01,55,12.70
2016,05,04,01,56,12.70
2016,05,04,01,57,12.70
2016,05,04,01,58,12.70
2016,05,04,01,59,12.70
2016,05,04,02,00,12.70
2016,05,04,02,01,12.70
2016,05,04,02,02,12.70
2016,05,04,02,03,12.70
2016,05,04,02,04,12.70
2016,05,04,02,05,12.70
2016,05,04,02,06,12.70
2016,05,04,02,07,12.70
2016,05,04,02,08,12.70
2016,05,04,02,09,12.70
2016,05,04,02,10,12.70
2016,05,04,02,11,12.70
2016,05,04,02,12,12.70
2016,05,04,02,13,12.70
2016,05,04,02,14,12.70
2016,05,04,02,15,12.60
2016,05,04,02,16,12.70
2016,05,04,02,17,12.60
2016,05,04,02,18,12.60
2016,05,04,02,19,12.60
2016,05,04,02,20,12.60
2016,05,04,02,21,12.60
2016,05,04,02,22,12.60
2016,05,04,02,23,12.60
2016,05,04,02,24,12.60
2016,05,04,02,25,12.60
2016,05,04,02,26,12.60
2016,05,04,02,27,12.60
2016,05,04,02,28,12.60
2016,05,04,02,29,12.50
2016,05,04,02,30,12.50
2016,05,04,02,31,12.50
2016,05,04,02,32,12.50
2016,05,04,02,33,12.40
2016,05,04,02,34,12.40
2016,05,04,02,35,12.40
2016,05,04,02,36,12.40
2016,05,04,02,37,12.40
2016,05,04,02,38,12.40
2016,05,04,02,39,12.30
2016,05,04,02,40,12.30
2016,05,04,02,41,12.30
2016,05,04,02,42,12.30
2016,05,04,02,43,12.30
2016,05,04,02,44,12.30
2016,05,04,02,45,12.20
2016,05,04,02,46,12.20
2016,05,04,02,47,12.20
2016,05,04,02,48,12.20
2016,05,04,02,49,12.20
2016,05,04,02,50,12.20
2016,05,04,02,51,12.20
2016,05,04,02,52,12.10
2016,05,04,02,53,12.10
2016,05,04,02,54,12.10
2016,05,04,02,55,12.10
2016,05,04,02,56,12.10
2016,05,04,02,57,12.10
2016,05,04,02,58,12.00
2016,05,04,02,59,12.00
2016,05,04,03,00,12.00
2016,05,04,03,01,12.00
2016,05,04,03,02,11.90
2016,05,04,03,03,11.90
2016,05,04,03,04,11.90
2016,05,04,03,05,11.90
2016,05,04,03,06,11.90
2016,05,04,03,07,11.90
2016,05,04,03,08,11.90
2016,05,04,03,09,11.90
2016,05,04,03,10,11.90
2016,05,04,03,11,11.90
2016,05,04,03,12,11.90
2016,05,04,03,13,11.90
2016,05,04,03,14,11.90
2016,05,04,03,15,11.90
2016,05,04,03,16,11.90
2016,05,04,03,17,11.90
2016,05,04,03,18,11.90
2016,05,04,03,19,11.90
2016,05,04,03,20,11.90
2016,05,04,03,21,11.80
2016,05,04,03,22,11.90
2016,05,04,03,23,11.80
2016,05,04,03,24,11.80
2016,05,04,03,25,11.80
2016,05,04,03,26,11.80
2016,05,04,03,27,11.80
2016,05,04,03,28,11.80
2016,05,04,03,29,11.80
2016,05,04,03,30,11.80
2016,05,04,03,31,11.80
2016,05,04,03,32,11.80
2016,05,04,03,33,11.80
2016,05,04,03,34,11.80
2016,05,04,03,35,11.80
2016,05,04,03,36,11.80
2016,05,04,03,37,11.80
2016,05,04,03,38,11.80
2016,05,04,03,39,11.80
2016,05,04,03,40,11.80
2016,05,04,03,41,11.80
2016,05,04,03,42,11.80
2016,05,04,03,43,11.80
2016,05,04,03,44,11.80
2016,05,04,03,45,11.80
2016,05,04,03,46,11.80
2016,05,04,03,47,11.80
2016,05,04,03,48,11.70
2016,05,04,03,49,11.80
2016,05,04,03,50,11.70
2016,05,04,03,51,11.70
2016,05,04,03,52,11.70
2016,05,04,03,53,11.70
2016,05,04,03,54,11.70
2016,05,04,03,55,11.70
2016,05,04,03,56,11.70
2016,05,04,03,57,11.70
2016,05,04,03,58,11.70
2016,05,04,03,59,11.70
2016,05,04,04,00,11.70
2016,05,04,04,01,11.70
2016,05,04,04,02,11.70
2016,05,04,04,03,11.70
2016,05,04,04,04,11.70
2016,05,04,04,05,11.70
2016,05,04,04,06,11.70
2016,05,04,04,07,11.70
2016,05,04,04,08,11.70
2016,05,04,04,09,11.70
2016,05,04,04,10,11.70
2016,05,04,04,11,11.70
2016,05,04,04,12,11.70
2016,05,04,04,13,11.70
2016,05,04,04,14,11.70
2016,05,04,04,15,11.70
2016,05,04,04,16,11.70
2016,05,04,04,17,11.70
2016,05,04,04,18,11.70
2016,05,04,04,19,11.70
2016,05,04,04,20,11.70
2016,05,04,04,21,11.70
2016,05,04,04,22,11.70
2016,05,04,04,23,11.70
2016,05,04,04,24,11.70
2016,05,04,04,25,11.80
2016,05,04,04,26,11.80
2016,05,04,04,27,11.80
2016,05,04,04,28,11.80
2016,05,04,04,29,11.80
2016,05,04,04,30,11.80
2016,05,04,04,31,11.80
2016,05,04,04,32,11.80
2016,05,04,04,33,11.80
2016,05,04,04,34,11.80
2016,05,04,04,35,11.80
2016,05,04,04,36,11.80
2016,05,04,04,37,11.80
2016,05,04,04,38,11.80
2016,05,04,04,39,11.80
2016,05,04,04,40,11.80
2016,05,04,04,41,11.80
2016,05,04,04,42,11.80
2016,05,04,04,43,11.80
2016,05,04,04,44,11.80
2016,05,04,04,45,11.80
2016,05,04,04,46,11.80
2016,05,04,04,47,11.80
2016,05,04,04,48,11.80
2016,05,04,04,49,11.80
2016,05,04,04,50,11.80
2016,05,04,04,51,11.80
2016,05,04,04,52,11.80
2016,05,04,04,53,11.80
2016,05,04,04,54,11.70
2016,05,04,04,55,11.70
2016,05,04,04,56,11.70
2016,05,04,04,57,11.70
2016,05,04,04,58,11.70
2016,05,04,04,59,11.70
2016,05,04,05,00,11.70
2016,05,04,05,01,11.70
2016,05,04,05,02,11.70
2016,05,04,05,03,11.70
2016,05,04,05,04,11.70
2016,05,04,05,05,11.70
2016,05,04,05,06,11.70
2016,05,04,05,07,11.70
2016,05,04,05,08,11.70
2016,05,04,05,09,11.70
2016,05,04,05,10,11.70
2016,05,04,05,11,11.70
2016,05,04,05,12,11.70
2016,05,04,05,13,11.70
2016,05,04,05,14,11.70
2016,05,04,05,15,11.70
2016,05,04,05,16,11.70
2016,05,04,05,17,11.70
2016,05,04,05,18,11.70
2016,05,04,05,19,11.70
2016,05,04,05,20,11.70
2016,05,04,05,21,11.70
2016,05,04,05,22,11.70
2016,05,04,05,23,11.70
2016,05,04,05,24,11.70
2016,05,04,05,25,11.70
2016,05,04,05,26,11.70
2016,05,04,05,27,11.70
2016,05,04,05,28,11.70
2016,05,04,05,29,11.70
2016,05,04,05,30,11.70
2016,05,04,05,31,11.60
2016,05,04,05,32,11.60
2016,05,04,05,33,11.60
2016,05,04,05,34,11.60
2016,05,04,05,35,11.60
2016,05,04,05,36,11.60
2016,05,04,05,37,11.60
2016,05,04,05,38,11.60
2016,05,04,05,39,11.60
2016,05,04,05,40,11.60
2016,05,04,05,41,11.60
2016,05,04,05,42,11.60
2016,05,04,05,43,11.60
2016,05,04,05,44,11.60
2016,05,04,05,45,11.60
2016,05,04,05,46,11.50
2016,05,04,05,47,11.50
2016,05,04,05,48,11.50
2016,05,04,05,49,11.50
2016,05,04,05,50,11.50
2016,05,04,05,51,11.50
2016,05,04,05,52,11.50
2016,05,04,05,53,11.40
2016,05,04,05,54,11.40
2016,05,04,05,55,11.40
2016,05,04,05,56,11.40
2016,05,04,05,57,11.40
2016,05,04,05,58,11.40
2016,05,04,05,59,11.40
2016,05,04,06,00,11.40
2016,05,04,06,01,11.40
2016,05,04,06,02,11.40
2016,05,04,06,03,11.40
2016,05,04,06,04,11.40
2016,05,04,06,05,11.40
2016,05,04,06,06,11.40
2016,05,04,06,07,11.40
2016,05,04,06,08,11.30
2016,05,04,06,09,11.30
2016,05,04,06,10,11.30
2016,05,04,06,11,11.30
2016,05,04,06,12,11.30
2016,05,04,06,13,11.30
2016,05,04,06,14,11.30
2016,05,04,06,15,11.30
2016,05,04,06,16,11.20
2016,05,04,06,17,11.20
2016,05,04,06,18,11.20
2016,05,04,06,19,11.20
2016,05,04,06,20,11.20
2016,05,04,06,21,11.10
2016,05,04,06,22,11.10
2016,05,04,06,23,11.10
2016,05,04,06,24,11.10
2016,05,04,06,25,11.10
2016,05,04,06,26,11.00
2016,05,04,06,27,11.00
2016,05,04,06,28,10.90
2016,05,04,06,29,10.90
2016,05,04,06,30,10.90
2016,05,04,06,31,10.80
2016,05,04,06,32,10.80
2016,05,04,06,33,10.80
2016,05,04,06,34,10.70
2016,05,04,06,35,10.70
2016,05,04,06,36,10.70
2016,05,04,06,37,10.70
2016,05,04,06,38,10.60
2016,05,04,06,39,10.60
2016,05,04,06,40,10.60
2016,05,04,06,41,10.60
2016,05,04,06,42,10.60
2016,05,04,06,43,10.60
2016,05,04,06,44,10.50
2016,05,04,06,45,10.50
2016,05,04,06,46,10.50
2016,05,04,06,47,10.40
2016,05,04,06,48,10.40
2016,05,04,06,49,10.40
2016,05,04,06,50,10.40
2016,05,04,06,51,10.40
2016,05,04,06,52,10.40
2016,05,04,06,53,10.40
2016,05,04,06,54,10.40
2016,05,04,06,55,10.40
2016,05,04,06,56,10.40
2016,05,04,06,57,10.40
2016,05,04,06,58,10.30
2016,05,04,06,59,10.30
2016,05,04,07,00,10.30
2016,05,04,07,01,10.30
2016,05,04,07,02,10.30
2016,05,04,07,03,10.30
2016,05,04,07,04,10.30
2016,05,04,07,05,10.30
2016,05,04,07,06,10.30
2016,05,04,07,07,10.30
2016,05,04,07,08,10.30
2016,05,04,07,09,10.30
2016,05,04,07,10,10.30
2016,05,04,07,11,10.30
2016,05,04,07,12,10.30
2016,05,04,07,13,10.40
2016,05,04,07,14,10.40
2016,05,04,07,15,10.40
2016,05,04,07,16,10.40
2016,05,04,07,17,10.40
2016,05,04,07,18,10.40
2016,05,04,07,19,10.40
2016,05,04,07,20,10.40
2016,05,04,07,21,10.40
2016,05,04,07,22,10.40
2016,05,04,07,23,10.40
2016,05,04,07,24,10.40
2016,05,04,07,25,10.50
2016,05,04,07,26,10.50
2016,05,04,07,27,10.50
2016,05,04,07,28,10.50
2016,05,04,07,29,10.50
2016,05,04,07,30,10.50
2016,05,04,07,31,10.60
2016,05,04,07,32,10.60
2016,05,04,07,33,10.60
2016,05,04,07,34,10.60
2016,05,04,07,35,10.60
2016,05,04,07,36,10.60
2016,05,04,07,37,10.60
2016,05,04,07,38,10.60
2016,05,04,07,39,10.70
2016,05,04,07,40,10.70
2016,05,04,07,41,10.70
2016,05,04,07,42,10.70
2016,05,04,07,43,10.70
2016,05,04,07,44,10.70
2016,05,04,07,45,10.70
2016,05,04,07,46,10.70
2016,05,04,07,47,10.70
2016,05,04,07,48,10.80
2016,05,04,07,49,10.80
2016,05,04,07,50,10.80
2016,05,04,07,51,10.80
2016,05,04,07,52,10.80
2016,05,04,07,53,10.80
2016,05,04,07,54,10.80
2016,05,04,07,55,10.80
2016,05,04,07,56,10.80
2016,05,04,07,57,10.80
2016,05,04,07,58,10.80
2016,05,04,07,59,10.80
2016,05,04,08,00,10.80
2016,05,04,08,01,10.80
2016,05,04,08,02,10.80
2016,05,04,08,03,10.80
2016,05,04,08,04,10.80
2016,05,04,08,05,10.80
2016,05,04,08,06,10.80
2016,05,04,08,07,10.80
2016,05,04,08,08,10.80
2016,05,04,08,09,10.80
2016,05,04,08,10,10.80
2016,05,04,08,11,10.80
2016,05,04,08,12,10.80
2016,05,04,08,13,10.80
2016,05,04,08,14,10.80
2016,05,04,08,15,10.80
2016,05,04,08,16,10.80
2016,05,04,08,17,10.80
2016,05,04,08,18,10.70
2016,05,04,08,19,10.70
2016,05,04,08,20,10.70
2016,05,04,08,21,10.70
2016,05,04,08,22,10.70
2016,05,04,08,23,10.70
2016,05,04,08,24,10.70
2016,05,04,08,25,10.70
2016,05,04,08,26,10.70
2016,05,04,08,27,10.70
2016,05,04,08,28,10.70
2016,05,04,08,29,10.70
2016,05,04,08,30,10.70
2016,05,04,08,31,10.70
2016,05,04,08,32,10.70
2016,05,04,08,33,10.70
2016,05,04,08,34,10.70
2016,05,04,08,35,10.70
2016,05,04,08,36,10.70
2016,05,04,08,37,10.70
2016,05,04,08,38,10.70
2016,05,04,08,39,10.70
2016,05,04,08,40,10.70
2016,05,04,08,41,10.70
2016,05,04,08,42,10.70
2016,05,04,08,43,10.70
2016,05,04,08,44,10.70
2016,05,04,08,45,10.70
2016,05,04,08,46,10.70
2016,05,04,08,47,10.70
2016,05,04,08,48,10.70
2016,05,04,08,49,10.70
2016,05,04,08,50,10.70
2016,05,04,08,51,10.70
2016,05,04,08,52,10.70
2016,05,04,08,53,10.70
2016,05,04,08,54,10.70
2016,05,04,08,55,10.70
2016,05,04,08,56,10.70
2016,05,04,08,57,10.70
2016,05,04,08,58,10.70
2016,05,04,08,59,10.70
2016,05,04,09,00,10.80
2016,05,04,09,01,10.80
2016,05,04,09,02,10.80
2016,05,04,09,03,10.80
2016,05,04,09,04,10.80
2016,05,04,09,05,10.80
2016,05,04,09,06,10.80
2016,05,04,09,07,10.80
2016,05,04,09,08,10.80
2016,05,04,09,09,10.90
2016,05,04,09,10,10.90
2016,05,04,09,11,10.90
2016,05,04,09,12,11.00
2016,05,04,09,13,11.00
2016,05,04,09,14,11.00
2016,05,04,09,15,11.10
2016,05,04,09,16,11.10
2016,05,04,09,17,11.10
2016,05,04,09,18,11.10
2016,05,04,09,19,11.10
2016,05,04,09,20,11.10
2016,05,04,09,21,11.20
2016,05,04,09,22,11.20
2016,05,04,09,23,11.20
2016,05,04,09,24,11.20
2016,05,04,09,25,11.20
2016,05,04,09,26,11.20
2016,05,04,09,27,11.20
2016,05,04,09,28,11.20
2016,05,04,09,29,11.20
2016,05,04,09,30,11.20
2016,05,04,09,31,11.30
2016,05,04,09,32,11.30
2016,05,04,09,33,11.30
2016,05,04,09,34,11.30
2016,05,04,09,35,11.30
2016,05,04,09,36,11.40
2016,05,04,09,37,11.40
2016,05,04,09,38,11.40
2016,05,04,09,39,11.40
2016,05,04,09,40,11.40
2016,05,04,09,41,11.40
2016,05,04,09,42,11.40
2016,05,04,09,43,11.50
2016,05,04,09,44,11.50
2016,05,04,09,45,11.50
2016,05,04,09,46,11.50
2016,05,04,09,47,11.50
2016,05,04,09,48,11.60
2016,05,04,09,49,11.60
2016,05,04,09,50,11.60
2016,05,04,09,51,11.60
2016,05,04,09,52,11.60
2016,05,04,09,53,11.60
2016,05,04,09,54,11.60
2016,05,04,09,55,11.60
2016,05,04,09,56,11.70
2016,05,04,09,57,11.70
2016,05,04,09,58,11.70
2016,05,04,09,59,11.70
2016,05,04,10,00,11.80
2016,05,04,10,01,11.80
2016,05,04,10,02,11.90
2016,05,04,10,03,11.90
2016,05,04,10,04,11.90
2016,05,04,10,05,12.00
2016,05,04,10,06,12.10
2016,05,04,10,07,12.20
2016,05,04,10,08,12.20
2016,05,04,10,09,12.20
2016,05,04,10,10,12.30
2016,05,04,10,11,12.40
2016,05,04,10,12,12.40
2016,05,04,10,13,12.40
2016,05,04,10,14,12.40
2016,05,04,10,15,12.30
2016,05,04,10,16,12.30
2016,05,04,10,17,12.30
2016,05,04,10,18,12.30
2016,05,04,10,19,12.20
2016,05,04,10,20,12.20
2016,05,04,10,21,12.20
2016,05,04,10,22,12.20
2016,05,04,10,23,12.20
2016,05,04,10,24,12.20
2016,05,04,10,25,12.20
2016,05,04,10,26,12.30
2016,05,04,10,27,12.30
2016,05,04,10,28,12.30
2016,05,04,10,29,12.40
2016,05,04,10,30,12.40
2016,05,04,10,31,12.40
2016,05,04,10,32,12.40
2016,05,04,10,33,12.60
2016,05,04,10,34,12.60
2016,05,04,10,35,12.70
2016,05,04,10,36,12.80
2016,05,04,10,37,12.80
2016,05,04,10,38,12.80
2016,05,04,10,39,12.80
2016,05,04,10,40,12.80
2016,05,04,10,41,12.80
2016,05,04,10,42,12.80
2016,05,04,10,43,12.80
2016,05,04,10,44,12.90
2016,05,04,10,45,12.90
2016,05,04,10,46,12.90
2016,05,04,10,47,12.90
2016,05,04,10,48,13.00
2016,05,04,10,49,13.00
2016,05,04,10,50,13.10
2016,05,04,10,51,13.10
2016,05,04,10,52,13.20
2016,05,04,10,53,13.20
2016,05,04,10,54,13.30
2016,05,04,10,55,13.30
2016,05,04,10,56,13.40
2016,05,04,10,57,13.50
2016,05,04,10,58,13.60
2016,05,04,10,59,13.60
2016,05,04,11,00,13.70
2016,05,04,11,01,13.70
2016,05,04,11,02,13.80
2016,05,04,11,03,13.80
2016,05,04,11,04,13.80
2016,05,04,11,05,13.80
2016,05,04,11,06,14.00
2016,05,04,11,07,14.00
2016,05,04,11,08,14.00
2016,05,04,11,09,14.00
2016,05,04,11,10,14.10
2016,05,04,11,11,14.10
2016,05,04,11,12,14.10
2016,05,04,11,13,14.20
2016,05,04,11,14,14.20
2016,05,04,11,15,14.30
2016,05,04,11,16,14.20
2016,05,04,11,17,14.30
2016,05,04,11,18,14.30
2016,05,04,11,19,14.30
2016,05,04,11,20,14.30
2016,05,04,11,21,14.30
2016,05,04,11,22,14.30
2016,05,04,11,23,14.30
2016,05,04,11,24,14.30
2016,05,04,11,25,14.30
2016,05,04,11,26,14.30
2016,05,04,11,27,14.40
2016,05,04,11,28,14.30
2016,05,04,11,29,14.30
2016,05,04,11,30,14.30
2016,05,04,11,31,14.30
2016,05,04,11,32,14.40
2016,05,04,11,33,14.40
2016,05,04,11,34,14.50
2016,05,04,11,35,14.60
2016,05,04,11,36,14.60
2016,05,04,11,37,14.70
2016,05,04,11,38,14.80
2016,05,04,11,39,14.80
2016,05,04,11,40,14.90
2016,05,04,11,41,14.80
2016,05,04,11,42,14.70
2016,05,04,11,43,14.70
2016,05,04,11,44,14.70
2016,05,04,11,45,14.70
2016,05,04,11,46,14.60
2016,05,04,11,47,14.50
2016,05,04,11,48,14.40
2016,05,04,11,49,14.40
2016,05,04,11,50,14.40
2016,05,04,11,51,14.40
2016,05,04,11,52,14.30
2016,05,04,11,53,14.40
2016,05,04,11,54,14.40
2016,05,04,11,55,14.40
2016,05,04,11,56,14.50
2016,05,04,11,57,14.50
2016,05,04,11,58,14.50
2016,05,04,11,59,14.50
2016,05,04,12,00,14.50
2016,05,04,12,01,14.60
2016,05,04,12,02,14.50
2016,05,04,12,03,14.50
2016,05,04,12,04,14.40
2016,05,04,12,05,14.40
2016,05,04,12,06,14.40
2016,05,04,12,07,14.30
2016,05,04,12,08,14.20
2016,05,04,12,09,14.10
2016,05,04,12,10,14.00
2016,05,04,12,11,13.90
2016,05,04,12,12,13.90
2016,05,04,12,13,13.80
2016,05,04,12,14,13.70
2016,05,04,12,15,13.70
2016,05,04,12,16,13.70
2016,05,04,12,17,13.70
2016,05,04,12,18,13.70
2016,05,04,12,19,13.70
2016,05,04,12,20,13.70
2016,05,04,12,21,13.80
2016,05,04,12,22,13.80
2016,05,04,12,23,13.90
2016,05,04,12,24,14.00
2016,05,04,12,25,14.10
2016,05,04,12,26,14.20
2016,05,04,12,27,14.20
2016,05,04,12,28,14.30
2016,05,04,12,29,14.30
2016,05,04,12,30,14.40
2016,05,04,12,31,14.40
2016,05,04,12,32,14.50
2016,05,04,12,33,14.60
2016,05,04,12,34,14.60
2016,05,04,12,35,14.60
2016,05,04,12,36,14.60
2016,05,04,12,37,14.60
2016,05,04,12,38,14.60
2016,05,04,12,39,14.60
2016,05,04,12,40,14.60
2016,05,04,12,41,14.60
2016,05,04,12,42,14.60
2016,05,04,12,43,14.70
2016,05,04,12,44,14.80
2016,05,04,12,45,14.80
2016,05,04,12,46,14.80
2016,05,04,12,47,14.90
2016,05,04,12,48,14.90
2016,05,04,12,49,15.00
2016,05,04,12,50,15.10
2016,05,04,12,51,15.10
2016,05,04,12,52,15.10
2016,05,04,12,53,15.00
2016,05,04,12,54,14.90
2016,05,04,12,55,14.80
2016,05,04,12,56,14.70
2016,05,04,12,57,14.70
2016,05,04,12,58,14.70
2016,05,04,12,59,14.80
2016,05,04,13,00,14.70
2016,05,04,13,01,14.70
2016,05,04,13,02,14.70
2016,05,04,13,03,14.80
2016,05,04,13,04,14.80
2016,05,04,13,05,14.80
2016,05,04,13,06,14.90
2016,05,04,13,07,14.90
2016,05,04,13,08,14.90
2016,05,04,13,09,14.80
2016,05,04,13,10,14.70
2016,05,04,13,11,14.60
2016,05,04,13,12,14.40
2016,05,04,13,13,14.40
2016,05,04,13,14,14.30
2016,05,04,13,15,14.20
2016,05,04,13,16,14.20
2016,05,04,13,17,14.20
2016,05,04,13,18,14.10
2016,05,04,13,19,14.10
2016,05,04,13,20,14.10
2016,05,04,13,21,14.10
2016,05,04,13,22,14.10
2016,05,04,13,23,14.20
2016,05,04,13,24,14.20
2016,05,04,13,25,14.20
2016,05,04,13,26,14.20
2016,05,04,13,27,14.10
2016,05,04,13,28,14.10
2016,05,04,13,29,14.10
2016,05,04,13,30,14.10
2016,05,04,13,31,14.20
2016,05,04,13,32,14.20
2016,05,04,13,33,14.20
2016,05,04,13,34,14.20
2016,05,04,13,35,14.20
2016,05,04,13,36,14.20
2016,05,04,13,37,14.30
2016,05,04,13,38,14.20
2016,05,04,13,39,14.20
2016,05,04,13,40,14.20
2016,05,04,13,41,14.20
2016,05,04,13,42,14.30
2016,05,04,13,43,14.30
2016,05,04,13,44,14.30
2016,05,04,13,45,14.30
2016,05,04,13,46,14.30
2016,05,04,13,47,14.30
2016,05,04,13,48,14.30
2016,05,04,13,49,14.30
2016,05,04,13,50,14.30
2016,05,04,13,51,14.40
2016,05,04,13,52,14.40
2016,05,04,13,53,14.40
2016,05,04,13,54,14.30
2016,05,04,13,55,14.20
2016,05,04,13,56,14.20
2016,05,04,13,57,14.20
2016,05,04,13,58,14.10
2016,05,04,13,59,14.00
2016,05,04,14,00,14.00
2016,05,04,14,01,13.90
2016,05,04,14,02,13.80
2016,05,04,14,03,13.70
2016,05,04,14,04,13.70
2016,05,04,14,05,13.70
2016,05,04,14,06,13.70
2016,05,04,14,07,13.70
2016,05,04,14,08,13.80
2016,05,04,14,09,13.80
2016,05,04,14,10,13.90
2016,05,04,14,11,13.90
2016,05,04,14,12,13.90
2016,05,04,14,13,13.80
2016,05,04,14,14,13.80
2016,05,04,14,15,13.80
2016,05,04,14,16,13.70
2016,05,04,14,17,13.70
2016,05,04,14,18,13.70
2016,05,04,14,19,13.70
2016,05,04,14,20,13.70
2016,05,04,14,21,13.70
2016,05,04,14,22,13.70
2016,05,04,14,23,13.70
2016,05,04,14,24,13.70
2016,05,04,14,25,13.70
2016,05,04,14,26,13.80
2016,05,04,14,27,13.90
2016,05,04,14,28,13.90
2016,05,04,14,29,14.00
2016,05,04,14,30,14.00
2016,05,04,14,31,14.10
2016,05,04,14,32,14.20
2016,05,04,14,33,14.20
2016,05,04,14,34,14.30
2016,05,04,14,35,14.40
2016,05,04,14,36,14.50
2016,05,04,14,37,14.50
2016,05,04,14,38,14.50
2016,05,04,14,39,14.50
2016,05,04,14,40,14.50
2016,05,04,14,41,14.40
2016,05,04,14,42,14.40
2016,05,04,14,43,14.40
2016,05,04,14,44,14.30
2016,05,04,14,45,14.30
2016,05,04,14,46,14.30
2016,05,04,14,47,14.20
2016,05,04,14,48,14.20
2016,05,04,14,49,14.20
2016,05,04,14,50,14.20
2016,05,04,14,51,14.30
2016,05,04,14,52,14.30
2016,05,04,14,53,14.30
2016,05,04,14,54,14.40
2016,05,04,14,55,14.50
2016,05,04,14,56,14.60
2016,05,04,14,57,14.70
2016,05,04,14,58,14.80
2016,05,04,14,59,14.80
2016,05,04,15,00,14.90
2016,05,04,15,01,14.80
2016,05,04,15,02,14.80
2016,05,04,15,03,14.80
2016,05,04,15,04,14.80
2016,05,04,15,05,14.90
2016,05,04,15,06,14.90
2016,05,04,15,07,14.90
2016,05,04,15,08,14.90
2016,05,04,15,09,15.00
2016,05,04,15,10,15.10
2016,05,04,15,11,15.20
2016,05,04,15,12,15.20
2016,05,04,15,13,15.20
2016,05,04,15,14,15.20
2016,05,04,15,15,15.30
2016,05,04,15,16,15.30
2016,05,04,15,17,15.30
2016,05,04,15,18,15.30
2016,05,04,15,19,15.20
2016,05,04,15,20,15.20
2016,05,04,15,21,15.10
2016,05,04,15,22,15.00
2016,05,04,15,23,14.80
2016,05,04,15,24,14.70
2016,05,04,15,25,14.60
2016,05,04,15,26,14.40
2016,05,04,15,27,14.30
2016,05,04,15,28,14.30
2016,05,04,15,29,14.20
2016,05,04,15,30,14.10
2016,05,04,15,31,14.00
2016,05,04,15,32,13.90
2016,05,04,15,33,13.90
2016,05,04,15,34,13.80
2016,05,04,15,35,13.70
2016,05,04,15,36,13.70
2016,05,04,15,37,13.70
2016,05,04,15,38,13.70
2016,05,04,15,39,13.60
2016,05,04,15,40,13.70
2016,05,04,15,41,13.70
2016,05,04,15,42,13.60
2016,05,04,15,43,13.60
2016,05,04,15,44,13.60
2016,05,04,15,45,13.60
2016,05,04,15,46,13.60
2016,05,04,15,47,13.60
2016,05,04,15,48,13.70
2016,05,04,15,49,13.70
2016,05,04,15,50,13.80
2016,05,04,15,51,13.80
2016,05,04,15,52,13.90
2016,05,04,15,53,13.90
2016,05,04,15,54,14.00
2016,05,04,15,55,14.00
2016,05,04,15,56,14.10
2016,05,04,15,57,14.10
2016,05,04,15,58,14.10
2016,05,04,15,59,14.10
2016,05,04,16,00,14.20
2016,05,04,16,01,14.20
2016,05,04,16,02,14.20
2016,05,04,16,03,14.20
2016,05,04,16,04,14.20
2016,05,04,16,05,14.20
2016,05,04,16,06,14.30
2016,05,04,16,07,14.30
2016,05,04,16,08,14.50
2016,05,04,16,09,14.70
2016,05,04,16,10,14.80
2016,05,04,16,11,14.80
2016,05,04,16,12,14.80
2016,05,04,16,13,14.80
2016,05,04,16,14,14.80
2016,05,04,16,15,14.70
2016,05,04,16,16,14.70
2016,05,04,16,17,14.60
2016,05,04,16,18,14.60
2016,05,04,16,19,14.60
2016,05,04,16,20,14.60
2016,05,04,16,21,14.50
2016,05,04,16,22,14.50
2016,05,04,16,23,14.60
2016,05,04,16,24,14.60
2016,05,04,16,25,14.70
2016,05,04,16,26,14.70
2016,05,04,16,27,14.70
2016,05,04,16,28,14.80
2016,05,04,16,29,14.80
2016,05,04,16,30,14.90
2016,05,04,16,31,14.90
2016,05,04,16,32,15.00
2016,05,04,16,33,15.00
2016,05,04,16,34,15.10
2016,05,04,16,35,15.10
2016,05,04,16,36,15.10
2016,05,04,16,37,15.20
2016,05,04,16,38,15.20
2016,05,04,16,39,15.20
2016,05,04,16,40,15.20
2016,05,04,16,41,15.10
2016,05,04,16,42,15.10
2016,05,04,16,43,15.10
2016,05,04,16,44,15.20
2016,05,04,16,45,15.20
2016,05,04,16,46,15.20
2016,05,04,16,47,15.20
2016,05,04,16,48,15.20
2016,05,04,16,49,15.20
2016,05,04,16,50,15.40
2016,05,04,16,51,15.40
2016,05,04,16,52,15.40
2016,05,04,16,53,15.40
2016,05,04,16,54,15.50
2016,05,04,16,55,15.50
2016,05,04,16,56,15.60
2016,05,04,16,57,15.70
2016,05,04,16,58,15.80
2016,05,04,16,59,15.90
2016,05,04,17,00,16.00
2016,05,04,17,01,16.10
2016,05,04,17,02,16.00
2016,05,04,17,03,15.90
2016,05,04,17,04,15.90
2016,05,04,17,05,15.80
2016,05,04,17,06,15.80
2016,05,04,17,07,15.70
2016,05,04,17,08,15.60
2016,05,04,17,09,15.60
2016,05,04,17,10,15.40
2016,05,04,17,11,15.20
2016,05,04,17,12,14.90
2016,05,04,17,13,14.70
2016,05,04,17,14,14.70
2016,05,04,17,15,14.60
2016,05,04,17,16,14.50
2016,05,04,17,17,14.40
2016,05,04,17,18,14.30
2016,05,04,17,19,14.30